Location: Azul
(36.7830°S, 59.8500°W)
Time: 00:26:44
(UTC-03:00)

First-Move - Pass Details

Date: 24 October 2021
Orbit: 575 x 664 km, 97.6° (Epoch: 30 November)

Event Time Altitude Azimuth Distance (km) Brightness Sun altitude
Rises 03:47:16 0° 49° (NE) 2,918 ? -25.0°
Reaches altitude 10° 03:49:54 10° 65° (ENE) 2,036 ? -24.6°
Maximum altitude 03:53:09 20° 112° (ESE) 1,493 ? -24.1°
Drops below altitude 10° 03:56:29 10° 159° (SSE) 2,091 ? -23.5°
Sets 03:59:13 0° 175° (S) 3,023 ? -23.1°
